Flag for Norway Weather past 2 weeks in Eidsvoll, Norway

Now
36 °F

Sunny.


Feels Like: 36 °F
Forecast: 29 / 53 °F
Wind: No wind

Location: Oslo Gardermoen Airport


UV Index: 0 (Low)

Visibility: 10 mi


Pressure: 30.24 "Hg

Humidity: 81%

Dew point: 30 °F

Location of EidsvollLocation

Historic Weather in Eidsvoll

°F

Eidsvoll temperature yesterday

Maximum temperature yesterday: 52 °F (at 4:50 PM)
Minimum temperature yesterday: 37 °F (at 4:50 AM)
Average temperature yesterday: 43 °F

Past Weeks' High & Low Weather Summary

 TemperatureHumidityPressure
High55 °F (Apr 7, 3:50 PM)100% (Apr 5, 6:50 PM)30.30 "Hg (Apr 5, 6:50 PM)
Low23 °F (Apr 5, 4:50 AM)25% (Apr 15, 4:20 PM)29.30 "Hg (Apr 13, 4:20 AM)
Average40 °F73%29.81 "Hg
* Reported Apr 4 7:20 AM — Apr 19 7:20 AM, Eidsvoll, Weather by CustomWeather, © 2014

Note: Actual official high and low records may vary slightly from our data, if they occured in-between our weather recording intervals... More about our weather records

Advertising

Historic Weather Conditions — Data for Previous 24 hours

 ConditionsComfort  
Time TempWeatherWind HumidityBarometerVisibility
7:20 AM
Apr 19
32 °FSunny.2 mph87%30.24 "Hg10 mi
6:50 AM30 °FSunny.2 mph86%30.24 "Hg10 mi
6:20 AM30 °FClear.1 mph86%30.24 "Hg10 mi
5:50 AM28 °FClear.No wind93%30.24 "Hg10 mi
4:50 AM28 °FClear.2 mph86%30.24 "Hg10 mi
4:20 AM28 °FClear.2 mph86%30.24 "Hg10 mi
3:50 AM28 °FClear.2 mph86%30.24 "Hg10 mi
3:20 AM30 °FClear.1 mph86%30.24 "Hg10 mi
2:50 AM30 °FClear.3 mph86%30.21 "Hg10 mi
2:20 AM30 °FClear.3 mph86%30.21 "Hg10 mi
1:50 AM32 °FClear.2 mph80%30.21 "Hg10 mi
1:20 AM34 °FClear.2 mph75%30.21 "Hg10 mi
12:50 AM34 °FClear.2 mph75%30.21 "Hg10 mi
12:20 AM36 °FClear.2 mph70%30.18 "Hg10 mi
11:50 PM
Apr 18
37 °FPassing clouds.3 mph70%30.18 "HgN/A
11:20 PM39 °FPassing clouds.3 mph65%30.18 "HgN/A
10:50 PM37 °FClear.5 mph70%30.15 "Hg10 mi
10:20 PM41 °FPassing clouds.3 mph61%30.15 "HgN/A
9:50 PM41 °FClear.2 mph61%30.15 "Hg10 mi
9:20 PM43 °FSunny.1 mph57%30.12 "Hg10 mi
8:50 PM45 °FQuite cool.7 mph49%30.12 "HgN/A
8:20 PM48 °FSunny.2 mph46%30.09 "Hg10 mi
7:50 PM50 °FPassing clouds.5 mph40%30.09 "HgN/A
7:20 PM50 °FPassing clouds.6 mph40%30.07 "HgN/A
6:50 PM50 °FPassing clouds.7 mph40%30.07 "HgN/A
6:20 PM52 °FPassing clouds.7 mph38%30.07 "HgN/A
5:50 PM52 °FPassing clouds.8 mph38%30.04 "HgN/A
5:20 PM52 °FPassing clouds.10 mph38%30.04 "HgN/A
4:50 PM52 °FPassing clouds.13 mph38%30.04 "HgN/A
4:20 PM50 °FPassing clouds.13 mph37%30.01 "HgN/A
3:50 PM50 °FPassing clouds.12 mph37%30.01 "HgN/A
3:20 PM50 °FPassing clouds.15 mph37%30.01 "HgN/A
2:50 PM50 °FPassing clouds.14 mph40%29.98 "HgN/A
2:20 PM50 °FPassing clouds.14 mph37%29.98 "HgN/A
1:50 PM48 °FPassing clouds.16 mph43%29.95 "HgN/A
1:20 PM48 °FPassing clouds.17 mph37%29.95 "HgN/A
12:50 PM48 °FSunny.21 mph40%29.92 "Hg10 mi
12:20 PM46 °FPassing clouds.21 mph43%29.92 "HgN/A
11:50 AM46 °FPassing clouds.18 mph43%29.92 "HgN/A
11:20 AM45 °FSunny.17 mph46%29.89 "Hg10 mi
10:50 AM43 °FSunny.21 mph49%29.86 "Hg10 mi
10:20 AM41 °FPassing clouds.21 mph53%29.83 "HgN/A
9:50 AM41 °FPassing clouds.15 mph53%29.83 "HgN/A
9:20 AM41 °FPassing clouds.16 mph53%29.83 "HgN/A
8:50 AM39 °FPassing clouds.16 mph56%29.80 "HgN/A
8:20 AM39 °FPassing clouds.16 mph61%29.77 "HgN/A
Weather by CustomWeather, © 2014

See weather overview